FW8870 Weather Reports


time (UTC)temp
C
wind
direction
speed
KPH
gust
KPH
rain 1hr
cm
rain 24hr
cm
rain mn
cm
humidity
%
barometer
mb
20260509012815 15 6 0.0 0.0 0.00 0.00 0.00 68 1023.3
20260509012312 15 339 0.0 0.0 0.00 0.00 0.00 69 1023.0
20260509011809 15 118 0.0 0.0 0.00 0.00 0.00 71 1023.0
20260509011306 15 322 0.0 0.0 0.00 0.00 0.00 69 1022.8
20260509010804 15 66 0.0 0.0 0.00 0.00 0.00 69 1022.9
20260509010301 15 23 0.0 0.0 0.00 0.00 0.00 70 1022.9
20260509005758 15 306 0.0 0.0 0.00 0.00 0.00 69 1023.0
20260509005256 15 178 1.6 3.2 0.00 0.00 0.00 68 1022.9
20260509004755 16 206 0.0 1.6 0.00 0.00 0.00 66 1023.3
20260509004252 16 314 0.0 0.0 0.00 0.00 0.00 67 1022.9
20260509003751 16 308 0.0 0.0 0.00 0.00 0.00 65 1022.7
20260509003248 16 166 3.2 4.8 0.00 0.00 0.00 65 1022.7
20260509002745 15 323 0.0 0.0 0.00 0.00 0.00 67 1022.9
20260509002243 16 332 0.0 0.0 0.00 0.00 0.00 67 1023.0
20260509001740 15 296 0.0 0.0 0.00 0.00 0.00 66 1022.9
20260509001235 16 342 0.0 0.0 0.00 0.00 0.00 63 1022.8
20260509000734 16 327 0.0 0.0 0.00 0.00 0.00 63 1023.1
20260509000231 16 271 0.0 0.0 0.00 0.00 0.00 63 1022.8
20260508235728 15 40 0.0 0.0 0.00 0.00 0.00 71 1022.9
20260508235224 15 3 0.0 0.0 0.00 0.00 0.00 71 1022.8
20260508234722 15 346 0.0 0.0 0.00 0.00 0.00 68 1022.8
20260508234218 16 358 0.0 0.0 0.00 0.00 0.00 69 1022.8
20260508233717 16 320 0.0 0.0 0.00 0.00 0.00 68 1022.8
20260508233215 16 1 0.0 0.0 0.00 0.00 0.00 67 1022.5
20260508232712 16 352 0.0 0.0 0.00 0.00 0.00 70 1022.6
20260508232208 16 348 0.0 0.0 0.00 0.00 0.00 65 1022.7
20260508231707 16 300 0.0 0.0 0.00 0.00 0.00 65 1022.5
20260508231203 16 328 0.0 0.0 0.00 0.00 0.00 65 1022.5
20260508230700 16 0 0.0 1.6 0.00 0.00 0.00 66 1022.5
20260508230156 16 311 0.0 0.0 0.00 0.00 0.00 70 1022.6
20260508225654 15 328 0.0 0.0 0.00 0.00 0.00 71 1022.6
20260508225150 16 350 0.0 0.0 0.00 0.00 0.00 67 1022.6
20260508224648 16 347 1.6 4.8 0.00 0.00 0.00 67 1022.5
20260508224145 16 49 0.0 0.0 0.00 0.00 0.00 66 1022.6
20260508223643 16 356 3.2 8.0 0.00 0.00 0.00 67 1022.6
20260508223140 15 23 0.0 0.0 0.00 0.00 0.00 69 1022.6
20260508222637 16 319 0.0 0.0 0.00 0.00 0.00 67 1022.3
20260508222134 15 342 0.0 0.0 0.00 0.00 0.00 69 1022.4
20260508221630 16 322 0.0 0.0 0.00 0.00 0.00 69 1022.4
20260508221126 16 18 0.0 0.0 0.00 0.00 0.00 64 1022.4
20260508220623 17 357 0.0 0.0 0.00 0.00 0.00 63 1022.6
20260508220120 16 329 0.0 0.0 0.00 0.00 0.00 65 1022.4
20260508215617 16 342 0.0 0.0 0.00 0.00 0.00 64 1022.4
20260508215113 16 305 0.0 0.0 0.00 0.00 0.00 59 1022.4
20260508214610 16 323 0.0 0.0 0.00 0.00 0.00 59 1022.5
20260508214107 17 231 6.4 9.7 0.00 0.00 0.00 59 1022.6
20260508213604 16 307 0.0 0.0 0.00 0.00 0.00 61 1022.3
20260508213100 17 282 0.0 0.0 0.00 0.00 0.00 64 1022.3
20260508212557 17 304 0.0 3.2 0.00 0.00 0.00 61 1022.1
20260508212053 17 354 0.0 0.0 0.00 0.00 0.00 61 1022.2
20260508211548 16 237 0.0 0.0 0.00 0.00 0.00 70 1022.3
20260508211045 16 319 0.0 0.0 0.00 0.00 0.00 67 1022.2
20260508210542 16 344 0.0 0.0 0.00 0.00 0.00 64 1022.3
20260508210039 16 315 0.0 0.0 0.00 0.00 0.00 62 1022.1
20260508205536 17 294 0.0 0.0 0.00 0.00 0.00 65 1022.2
20260508205032 16 291 0.0 0.0 0.00 0.00 0.00 70 1022.1
20260508204529 16 345 4.8 8.0 0.00 0.00 0.00 65 1021.8
20260508204025 17 174 3.2 4.8 0.00 0.00 0.00 62 1022.0
20260508203521 17 325 1.6 4.8 0.00 0.00 0.00 64 1021.9
20260508203017 16 332 0.0 1.6 0.00 0.00 0.00 65 1021.9
20260508202514 16 335 0.0 0.0 0.00 0.00 0.00 67 1021.7
20260508202011 17 354 0.0 0.0 0.00 0.00 0.00 64 1021.6
20260508201508 16 245 0.0 0.0 0.00 0.00 0.00 66 1021.9
20260508201005 16 223 0.0 0.0 0.00 0.00 0.00 66 1021.7
20260508200502 16 27 0.0 1.6 0.00 0.00 0.00 69 1021.7
20260508195956 16 163 0.0 0.0 0.00 0.00 0.00 70 1021.7
20260508195454 16 332 0.0 0.0 0.00 0.00 0.00 67 1021.6
20260508194950 17 187 1.6 3.2 0.00 0.00 0.00 67 1021.6
20260508194448 16 146 1.6 4.8 0.00 0.00 0.00 69 1021.4
20260508193944 16 193 0.0 3.2 0.00 0.00 0.00 68 1021.5
20260508193441 16 84 0.0 3.2 0.00 0.00 0.00 75 1021.6
20260508192938 15 192 0.0 1.6 0.00 0.00 0.00 73 1021.5
20260508192434 15 170 1.6 1.6 0.00 0.00 0.00 74 1021.5
20260508191931 15 299 0.0 0.0 0.00 0.00 0.00 75 1021.5
20260508191429 15 102 1.6 3.2 0.00 0.00 0.00 74 1021.5
20260508190925 15 322 0.0 0.0 0.00 0.00 0.00 76 1021.6
20260508190423 14 307 0.0 0.0 0.00 0.00 0.00 81 1021.4
20260508185918 14 351 0.0 0.0 0.00 0.00 0.00 79 1021.7
20260508185416 14 172 0.0 3.2 0.00 0.00 0.00 80 1021.9
20260508184914 13 31 4.8 9.7 0.00 0.00 0.00 79 1021.5
20260508184411 14 335 0.0 0.0 0.00 0.00 0.00 80 1021.4
20260508183907 14 94 0.0 0.0 0.00 0.00 0.00 81 1021.1
20260508183404 14 91 1.6 1.6 0.00 0.00 0.00 80 1021.2
20260508182859 14 162 1.6 8.0 0.00 0.00 0.00 80 1021.0
20260508182357 14 102 0.0 0.0 0.00 0.00 0.00 81 1021.0
20260508181852 14 318 0.0 0.0 0.00 0.00 0.00 81 1021.0
20260508181349 15 10 0.0 0.0 0.00 0.00 0.00 77 1021.2
20260508180846 15 127 0.0 3.2 0.00 0.00 0.00 77 1021.0
20260508180343 15 350 0.0 0.0 0.00 0.00 0.00 78 1020.7
20260508175839 16 159 0.0 0.0 0.00 0.00 0.00 78 1020.9
20260508175335 15 321 0.0 0.0 0.00 0.00 0.00 76 1020.8
20260508174834 15 310 0.0 0.0 0.00 0.00 0.00 77 1020.5
20260508174331 15 292 0.0 0.0 0.00 0.00 0.00 79 1020.8
20260508173827 14 189 0.0 0.0 0.00 0.00 0.00 80 1020.6
20260508173325 14 334 0.0 0.0 0.00 0.00 0.00 80 1020.6
20260508172820 14 241 0.0 0.0 0.00 0.00 0.00 80 1020.5
20260508172317 15 4 0.0 0.0 0.00 0.00 0.00 81 1020.6
20260508171814 14 347 0.0 0.0 0.00 0.00 0.00 81 1020.4
20260508171310 14 33 8.0 9.7 0.00 0.00 0.00 79 1020.2
20260508170807 14 160 0.0 1.6 0.00 0.00 0.00 80 1020.1
20260508170306 15 199 6.4 11.3 0.00 0.00 0.00 79 1020.2
20260508165801 13 336 0.0 0.0 0.00 0.00 0.00 81 1020.2
20260508165259 13 272 0.0 0.0 0.00 0.00 0.00 83 1020.2
20260508164754 13 20 0.0 0.0 0.00 0.00 0.00 84 1020.5
20260508164252 13 161 4.8 8.0 0.00 0.00 0.00 81 1020.2
20260508163750 13 162 0.0 0.0 0.00 0.00 0.00 82 1020.3
20260508163247 13 353 0.0 0.0 0.00 0.00 0.00 81 1020.3
20260508162743 13 137 0.0 0.0 0.00 0.00 0.00 82 1020.2
20260508162240 13 275 0.0 0.0 0.00 0.00 0.00 84 1020.2
20260508161737 13 103 1.6 4.8 0.00 0.00 0.00 84 1020.3
20260508161234 12 228 0.0 0.0 0.00 0.00 0.00 85 1020.0
20260508160732 12 290 0.0 0.0 0.00 0.00 0.00 85 1020.1
20260508160230 12 354 0.0 0.0 0.00 0.00 0.00 87 1020.2
20260508155726 12 29 0.0 0.0 0.00 0.00 0.00 88 1020.3
20260508155223 12 356 0.0 0.0 0.00 0.00 0.00 89 1020.3
20260508154720 12 136 0.0 0.0 0.00 0.00 0.00 89 1020.4
20260508154217 12 301 0.0 0.0 0.00 0.00 0.00 89 1020.5
20260508153714 12 338 0.0 0.0 0.00 0.00 0.00 88 1020.3
20260508153211 12 292 0.0 0.0 0.00 0.00 0.00 88 1020.3
20260508152708 12 313 0.0 0.0 0.00 0.00 0.00 89 1020.3
20260508152203 12 306 0.0 0.0 0.00 0.00 0.00 89 1020.3
20260508151700 12 323 0.0 0.0 0.00 0.00 0.00 88 1020.2
20260508151157 12 151 1.6 3.2 0.00 0.00 0.00 89 1019.9
20260508150654 12 283 0.0 0.0 0.00 0.00 0.00 89 1019.8
20260508150150 11 229 0.0 0.0 0.00 0.00 0.00 89 1020.1
20260508145646 11 227 3.2 8.0 0.00 0.00 0.00 90 1019.9
20260508145142 11 118 1.6 8.0 0.00 0.00 0.00 90 1019.7
20260508144640 11 148 0.0 1.6 0.00 0.00 0.00 90 1019.7
20260508144138 11 120 0.0 0.0 0.00 0.00 0.00 91 1019.4
20260508143635 11 256 0.0 0.0 0.00 0.00 0.00 92 1019.6
20260508143132 11 89 0.0 0.0 0.00 0.00 0.00 92 1019.4
20260508142628 11 301 0.0 0.0 0.00 0.00 0.00 92 1019.2
20260508142125 11 154 0.0 0.0 0.00 0.00 0.00 92 1019.3
20260508141622 11 201 0.0 0.0 0.00 0.00 0.00 94 1019.4
20260508141119 11 287 0.0 0.0 0.00 0.00 0.00 94 1019.4
20260508140616 11 287 0.0 0.0 0.00 0.00 0.00 94 1019.2
20260508140113 11 186 0.0 0.0 0.00 0.00 0.00 95 1019.1
20260508135608 11 211 0.0 0.0 0.00 0.00 0.00 98 1019.1
20260508135105 10 323 0.0 0.0 0.00 0.00 0.00 99 1019.0
20260508134602 10 303 0.0 0.0 0.00 0.00 0.00 99 1019.0
20260508134059 10 338 0.0 0.0 0.00 0.00 0.00 99 1019.1
20260508133555 10 332 0.0 0.0 0.00 0.00 0.00 99 1019.2
20260508133053 10 334 0.0 0.0 0.00 0.00 0.00 99 1019.1
20260508132550 10 316 0.0 0.0 0.00 0.00 0.00 99 1019.0
20260508132047 10 317 0.0 0.0 0.00 0.00 0.00 99 1018.8
20260508131542 10 300 0.0 0.0 0.00 0.00 0.00 99 1018.8
20260508131039 10 316 0.0 0.0 0.00 0.00 0.00 99 1018.9
20260508130537 10 308 0.0 0.0 0.00 0.00 0.00 99 1018.9
20260508130033 10 308 0.0 0.0 0.00 0.00 0.00 99 1018.8
20260508125529 10 253 0.0 0.0 0.00 0.00 0.00 99 1018.7
20260508125027 10 294 0.0 0.0 0.00 0.00 0.00 99 1018.7
20260508124524 10 308 0.0 0.0 0.00 0.00 0.00 99 1018.9
20260508124021 10 302 0.0 0.0 0.00 0.00 0.00 99 1018.9
20260508123520 10 301 0.0 0.0 0.00 0.00 0.00 99 1018.7
20260508123016 10 280 0.0 0.0 0.00 0.00 0.00 99 1018.8
20260508122513 10 314 0.0 0.0 0.00 0.00 0.00 99 1018.6
20260508122010 10 306 0.0 0.0 0.00 0.00 0.00 99 1018.6
20260508121508 10 336 0.0 0.0 0.00 0.00 0.00 99 1018.7
20260508121006 10 306 0.0 0.0 0.00 0.00 0.00 99 1018.6
20260508120503 10 148 0.0 0.0 0.00 0.00 0.00 99 1018.6
20260508120001 10 60 0.0 0.0 0.00 0.00 0.00 99 1018.5
20260508115458 10 2 0.0 0.0 0.00 0.00 0.00 99 1018.6
20260508114955 10 355 0.0 0.0 0.00 0.00 0.00 99 1018.6
20260508114452 10 331 0.0 0.0 0.00 0.00 0.00 99 1018.5
20260508113948 10 347 0.0 0.0 0.00 0.00 0.00 99 1018.7
20260508113446 10 279 0.0 0.0 0.00 0.00 0.00 99 1018.6
20260508112943 10 338 0.0 0.0 0.00 0.00 0.00 99 1018.5
20260508112439 10 327 0.0 0.0 0.00 0.00 0.00 99 1018.5
20260508111936 10 338 0.0 0.0 0.00 0.00 0.00 99 1018.6
20260508111433 10 334 0.0 0.0 0.00 0.00 0.00 99 1018.6
20260508110930 10 309 0.0 0.0 0.00 0.00 0.00 99 1018.5
20260508110428 10 330 0.0 0.0 0.00 0.00 0.00 99 1018.6
20260508105927 10 325 0.0 0.0 0.00 0.00 0.00 99 1018.7
20260508105424 10 289 0.0 0.0 0.00 0.00 0.00 99 1018.6
20260508104921 10 331 0.0 0.0 0.00 0.00 0.00 99 1018.5
20260508104419 10 358 0.0 0.0 0.00 0.00 0.00 99 1018.5
20260508103915 10 299 0.0 0.0 0.00 0.00 0.00 99 1018.7
20260508103413 10 316 0.0 0.0 0.00 0.00 0.00 99 1018.5
20260508102909 10 321 0.0 0.0 0.00 0.00 0.00 99 1018.4
20260508102408 10 347 0.0 0.0 0.00 0.00 0.00 99 1018.3
20260508101905 11 349 0.0 0.0 0.00 0.00 0.00 99 1018.5
20260508101402 10 330 0.0 0.0 0.00 0.00 0.00 98 1018.4
20260508100859 11 329 0.0 0.0 0.00 0.00 0.00 97 1018.4
20260508100358 11 330 0.0 0.0 0.00 0.00 0.00 96 1018.3
20260508095853 11 325 0.0 0.0 0.00 0.00 0.00 95 1018.3
20260508095352 11 314 0.0 0.0 0.00 0.00 0.00 94 1017.9
20260508094848 12 309 0.0 0.0 0.00 0.00 0.00 93 1018.2
20260508094345 11 325 0.0 0.0 0.00 0.00 0.00 93 1018.1
20260508093842 12 324 0.0 0.0 0.00 0.00 0.00 93 1018.2
20260508093339 11 69 0.0 0.0 0.00 0.00 0.00 94 1018.1
20260508092836 11 330 0.0 0.0 0.00 0.00 0.00 95 1017.9
20260508092334 11 336 0.0 0.0 0.00 0.00 0.00 95 1017.9
20260508091832 11 341 0.0 0.0 0.00 0.00 0.00 94 1017.9
20260508091328 12 337 0.0 0.0 0.00 0.00 0.00 94 1018.0
20260508090826 11 334 0.0 0.0 0.00 0.00 0.00 96 1018.2
20260508090325 11 315 0.0 0.0 0.00 0.00 0.00 96 1018.1
20260508085820 11 323 0.0 0.0 0.00 0.00 0.00 96 1018.0
20260508085317 11 339 0.0 0.0 0.00 0.00 0.00 97 1017.9
20260508084814 11 339 0.0 0.0 0.00 0.00 0.00 96 1018.2
20260508084311 12 351 0.0 0.0 0.00 0.00 0.00 96 1018.2
20260508083808 12 350 0.0 0.0 0.00 0.00 0.00 96 1018.2
20260508083306 12 324 0.0 0.0 0.00 0.00 0.00 95 1018.3
20260508082805 12 340 0.0 0.0 0.00 0.00 0.00 95 1018.3
20260508082306 12 294 0.0 0.0 0.00 0.00 0.00 95 1018.3
20260508081801 12 338 0.0 0.0 0.00 0.00 0.00 95 1018.5
20260508081257 12 335 0.0 0.0 0.00 0.00 0.00 95 1018.2
20260508080754 12 334 0.0 0.0 0.00 0.00 0.00 95 1018.5
20260508080252 12 320 0.0 0.0 0.00 0.00 0.00 95 1018.4
20260508075748 12 320 0.0 0.0 0.00 0.00 0.00 94 1018.6
20260508075245 12 314 0.0 0.0 0.00 0.00 0.00 94 1018.4
20260508074743 12 316 0.0 0.0 0.00 0.00 0.00 93 1018.6
20260508074240 12 314 0.0 0.0 0.00 0.00 0.00 94 1018.3
20260508073737 12 315 0.0 0.0 0.00 0.00 0.00 94 1018.4
20260508073235 12 314 0.0 0.0 0.00 0.00 0.00 94 1018.6
20260508072731 12 321 0.0 0.0 0.00 0.00 0.00 93 1018.5
20260508072228 12 321 0.0 0.0 0.00 0.00 0.00 93 1018.6
20260508071725 12 321 0.0 0.0 0.00 0.00 0.00 93 1018.3
20260508071224 12 321 0.0 0.0 0.00 0.00 0.00 93 1018.6
20260508070721 12 322 0.0 0.0 0.00 0.00 0.00 93 1018.7
20260508070219 12 321 0.0 0.0 0.00 0.00 0.00 93 1018.5
20260508065716 12 322 0.0 0.0 0.00 0.00 0.00 92 1018.6
20260508065214 12 322 0.0 0.0 0.00 0.00 0.00 93 1018.6
20260508064711 12 322 0.0 0.0 0.00 0.00 0.00 92 1018.6
20260508064209 12 322 0.0 0.0 0.00 0.00 0.00 92 1018.5
20260508063707 12 323 0.0 0.0 0.00 0.00 0.00 92 1018.7
20260508063204 12 312 0.0 0.0 0.00 0.00 0.00 91 1018.7
20260508062701 12 328 0.0 0.0 0.00 0.00 0.00 91 1018.4
20260508062158 12 329 0.0 0.0 0.00 0.00 0.00 90 1018.4
20260508061655 12 320 0.0 0.0 0.00 0.00 0.00 90 1018.3
20260508061153 13 336 0.0 0.0 0.00 0.00 0.00 87 1018.5
20260508060649 13 337 0.0 0.0 0.00 0.00 0.00 87 1018.4
20260508060147 13 344 0.0 0.0 0.00 0.00 0.00 85 1018.3
20260508055642 13 347 0.0 0.0 0.00 0.00 0.00 83 1018.3
20260508055139 13 347 0.0 0.0 0.00 0.00 0.00 83 1018.5
20260508054636 13 331 0.0 0.0 0.00 0.00 0.00 82 1018.4
20260508054134 13 329 0.0 0.0 0.00 0.00 0.00 83 1018.5
20260508053630 13 340 0.0 0.0 0.00 0.00 0.00 82 1018.6
20260508053128 13 340 0.0 0.0 0.00 0.00 0.00 84 1018.4
20260508052625 13 336 0.0 0.0 0.00 0.00 0.00 88 1018.6
20260508052122 13 323 0.0 0.0 0.00 0.00 0.00 86 1018.5
20260508051618 13 2 0.0 0.0 0.00 0.00 0.00 86 1018.6
20260508051113 14 321 0.0 0.0 0.00 0.00 0.00 84 1018.6
20260508050610 14 331 0.0 0.0 0.00 0.00 0.00 81 1018.4
20260508050108 14 301 0.0 0.0 0.00 0.00 0.00 80 1018.7
20260508045604 14 316 0.0 0.0 0.00 0.00 0.00 82 1018.7
20260508045102 13 311 0.0 0.0 0.00 0.00 0.00 84 1018.8
20260508044559 14 339 0.0 0.0 0.00 0.00 0.00 87 1018.6
20260508044055 14 0 0.0 0.0 0.00 0.00 0.00 81 1018.6
20260508043551 14 319 0.0 0.0 0.00 0.00 0.00 82 1018.6
20260508043049 15 309 0.0 0.0 0.00 0.00 0.00 81 1018.8
20260508042545 15 328 0.0 0.0 0.00 0.00 0.00 81 1018.8
20260508042043 15 306 0.0 0.0 0.00 0.00 0.00 81 1018.5
20260508041539 15 323 0.0 0.0 0.00 0.00 0.00 79 1018.7
20260508041035 15 340 0.0 0.0 0.00 0.00 0.00 81 1018.7
20260508040532 15 321 0.0 0.0 0.00 0.00 0.00 80 1018.7
20260508040030 15 344 0.0 0.0 0.00 0.00 0.00 82 1018.7
20260508035527 15 338 0.0 0.0 0.00 0.00 0.00 83 1018.5
20260508035024 15 343 0.0 0.0 0.00 0.00 0.00 83 1018.5
20260508034521 15 338 0.0 0.0 0.00 0.00 0.00 88 1018.5
20260508034018 15 338 0.0 0.0 0.00 0.00 0.00 86 1018.4
20260508033516 15 338 0.0 0.0 0.00 0.00 0.00 87 1018.5
20260508033014 15 338 0.0 0.0 0.00 0.00 0.00 85 1018.4
20260508032510 15 334 0.0 0.0 0.00 0.00 0.00 83 1018.4
20260508032008 15 333 0.0 0.0 0.00 0.00 0.00 79 1018.6
20260508031505 15 334 0.0 0.0 0.00 0.00 0.00 77 1018.5
20260508030959 16 327 0.0 0.0 0.00 0.00 0.00 77 1018.6
20260508030457 16 319 0.0 0.0 0.00 0.00 0.00 77 1018.8
20260508025955 16 320 0.0 0.0 0.00 0.00 0.00 77 1018.7
20260508025451 15 339 0.0 0.0 0.00 0.00 0.00 79 1018.7
20260508024948 15 337 0.0 0.0 0.00 0.00 0.00 78 1018.6
20260508024444 16 318 0.0 0.0 0.00 0.00 0.00 82 1018.5
20260508023941 16 318 0.0 0.0 0.00 0.00 0.00 81 1018.6
20260508023438 16 318 0.0 0.0 0.00 0.00 0.00 83 1018.5
20260508022935 16 318 0.0 0.0 0.00 0.00 0.00 81 1018.4
20260508022431 16 318 0.0 0.0 0.00 0.00 0.00 80 1018.7
20260508021927 16 318 0.0 0.0 0.00 0.00 0.00 81 1018.5
20260508021424 16 318 0.0 0.0 0.00 0.00 0.00 81 1018.6
20260508020919 16 318 0.0 0.0 0.00 0.00 0.00 79 1018.6
20260508020418 16 317 0.0 0.0 0.00 0.00 0.00 76 1018.6
20260508015914 16 336 0.0 0.0 0.00 0.00 0.00 75 1018.8
20260508015413 16 354 0.0 0.0 0.00 0.00 0.00 72 1018.7
20260508014908 16 331 0.0 0.0 0.00 0.00 0.00 73 1018.9
20260508014406 16 340 0.0 0.0 0.00 0.00 0.00 73 1018.9
20260508013902 16 305 0.0 0.0 0.00 0.00 0.00 73 1018.9
20260508013357 16 289 0.0 0.0 0.00 0.00 0.00 75 1019.0